Location: D�rnast
(49.6426°N, 11.9755°E)
Time: 19:26:26
(UTC+00:00)

Envisat - Pass Details

Date: 26 April 2021
Orbit: 764 x 766 km, 98.1° (Epoch: 06 May)

Event Time Altitude Azimuth Distance (km) Brightness Sun altitude
Rises 03:10:41 0° 32° (NNE) 3,242 7.5 -7.7°
Reaches altitude 10° 03:14:46 10° 64° (ENE) 2,308 7.3 -7.2°
Maximum altitude 03:16:30 12° 84° (E) 2,191 6.6 -6.9°
Drops below altitude 10° 03:18:15 10° 105° (ESE) 2,302 6.2 -6.7°
Sets 03:22:17 0° 137° (SE) 3,221 6.4 -6.1°
